Regional Weather Roundup
Issued by NWS Cleveland, OH

Home | Current Version | Previous Version | Text Only | Print | Product List | Glossary Off
Versions: 1 2 3 4 5 6 7 8 9 10 11 12 13 14 15 16 17 18 19 20 21 22 23 24 25 26 27 28 29 30 31 32 33 34 35 36 37 38 39 40 41 42 43 44 45 46 47 48 49 50

000
ASUS41 KCLE 290902
RWRCLE
OHIO REGIONAL WEATHER ROUNDUP
NATIONAL WEATHER SERVICE CLEVELAND, OH
500 AM EDT TUE JUL 29 2014

NOTE: "FAIR" INDICATES FEW OR NO CLOUDS BELOW 12,000 FEET WITH NO
SIGNIFICANT WEATHER AND/OR OBSTRUCTIONS TO VISIBILITY.

OHZ001>008-015>018-024>027-034-035-043-044-291000-
   NORTHWEST OHIO

CITY           SKY/WX    TMP DP  RH WIND       PRES   REMARKS
DEFIANCE       CLEAR     50  46  86 CALM      30.02S
FINDLAY        PTCLDY    53  49  86 NW6       29.99S
TOLEDO EXPRESS CLEAR     50  47  89 W3        30.00S
TOLEDO EXEC    CLEAR     52  47  83 NW3       30.01R
LIMA           PTCLDY    53  50  89 NW5       30.01R
$$

OHZ009>014-019>023-028>033-038-089-291000-
   NORTHEAST OHIO

CITY           SKY/WX    TMP DP  RH WIND       PRES   REMARKS
CLE-HOPKINS    MOCLDY    56  49  77 SW5       29.98R
CLE-LAKEFRONT  CLOUDY    62  49  62 NW9       29.95R
CUY CO. ARPT   NOT AVBL
LORAIN-ELYRIA  PTCLDY    54  48  80 W5        29.98R
ASHTABULA      CLOUDY    59  49  69 NW6       29.94R
AKRON-CANTON   CLEAR     53  49  86 W3        29.97R
WOOSTER        CLEAR     49  47  93 CALM      29.98S
MANSFIELD      PTCLDY    53  51  93 CALM      29.99R
YOUNGSTOWN     CLOUDY    54  49  83 W3        29.94S
$$

OHZ042-051>053-060>062-070>072-077>081-291000-
  SOUTHWEST OHIO

CITY           SKY/WX    TMP DP  RH WIND       PRES   REMARKS
CINC-COVINGTON PTCLDY    53  48  83 NW6       30.01S
CINC-LUNKEN    PTCLDY    53  49  86 CALM      30.02S
HAMILTON       PTCLDY    52  50  93 W3        30.02S
DAYTON         MOCLDY    53  50  89 N6        30.01S
WRIGHT-PAT AFB MOCLDY    54  52  92 N6        30.00R
DAYTON GENERAL PTCLDY    54  51  90 NW5       30.00R
WILMINGTON     PTCLDY    53  49  86 NW7       29.99S
$$

OHZ036-037-039>041-045>050-054>059-063>069-073>076-082>088-291000-
  CENTRAL AND SOUTHEAST OHIO

CITY           SKY/WX    TMP DP  RH WIND       PRES   REMARKS
COLUMBUS       CLOUDY    61  54  77 N5        29.97R
OSU AIRPORT    PTCLDY    56  54  93 N6        29.98R
BOLTON FIELD   MOCLDY    55  55  99 NW6       29.99R
RICKENBACK AFB MOCLDY    60  53  77 NE3       29.97R
NEWARK         MOCLDY    59  52  77 VRB5      29.97S
MARION         PTCLDY    54  53  97 CALM      29.99S
LANCASTER      CLOUDY    59  56  89 CALM      29.97S
ZANESVILLE     CLOUDY    58  52  80 CALM      29.97S
NEW PHILLY     PTCLDY    53  52  96 CALM      29.98S
$$



USA.gov is the U.S. government's official web portal to all federal, state and local government web resources and services.